Location: Colonia Mina de C?rbuni
(46.1667°N, 22.7167°E)
Time: 16:06:02
(UTC+00:00)

Vanguard 1 Rocket - Pass Details

Date: 20 April 2024
Orbit: 650 x 4220 km, 34.3° (Epoch: 22 May)

Event Time Altitude Azimuth Distance (km) Brightness Sun altitude
Rises 18:57:58 0° 249° (WSW) 3,372 10.8 -15.3°
Reaches altitude 10° 19:00:12 10° 240° (WSW) 2,656 10.1 -15.6°
Maximum altitude 19:05:53 36° 175° (S) 1,969 8.7 -16.4°
Enters shadow 19:10:50 23° 129° (SE) 3,073 9.4 -17.1°
